1494583200.87,19569,13.0,73016.3,8.05,-9.93,-10.45,0,*41
1494583202.08,19570,13.0,73014.5,8.03,-9.89,-10.49,0,*48
1494583203.3,19571,13.0,73014.8,7.99,-8.55,-9.01,0,*71
1494583204.53,19572,13.0,73016.8,8.01,-8.89,-9.45,0,*7D
1494583205.75,19573,13.0,73016.8,8.01,-8.85,-9.41,0,*74
1494583206.97,19574,13.0,73016.0,8.01,-9.05,-9.49,0,*72
1494583208.18,19575,13.0,73018.0,8.01,-8.59,-9.15,0,*72
1494583209.42,19576,13.0,73022.3,8.01,-8.51,-9.15,0,*79
1494583210.65,19577,13.0,73018.8,8.01,-9.71,-10.41,0,*42
1494583211.88,19578,13.0,73018.8,8.01,-10.05,-10.79,0,*7D
1494583213.08,19579,13.0,73016.3,8.01,-9.71,-10.49,0,*44
1494583214.31,19580,13.0,73012.8,7.99,-9.89,-10.79,0,*48
1494583215.54,19581,13.0,73012.3,7.97,-10.85,-11.81,0,*75
1494583216.79,19582,13.0,73010.8,7.95,-11.19,-12.11,0,*7A
1494583217.99,19583,13.0,73012.8,7.93,-10.45,-11.41,0,*73
1494583219.2,19584,13.0,73014.5,7.89,-10.35,-11.23,0,*7C
1494583220.4,19585,13.0,73012.8,7.89,-10.35,-11.23,0,*7D
1494583221.69,19586,13.0,73010.8,7.87,-11.07,-11.93,0,*7B
1494583222.92,19587,13.0,73004.5,7.85,-10.45,-11.51,0,*71
1494583224.14,19588,13.0,73008.3,7.85,-11.11,-12.15,0,*7D
1494583225.37,19589,13.0,73006.3,7.81,-10.89,-11.85,0,*72
1494583226.57,19590,13.0,73004.8,7.81,-12.39,-13.51,0,*78
1494583227.83,19591,13.0,73008.5,7.77,-12.15,-13.19,0,*72
1494583229.1,19592,13.0,73010.8,7.77,-11.81,-13.01,0,*76
1494583230.38,19593,13.0,73010.0,7.73,-11.67,-12.71,0,*7D
1494583231.6,19594,13.0,73012.5,7.73,-10.01,-11.01,0,*7F
1494583232.84,19595,13.0,73014.8,7.73,-10.89,-11.93,0,*75
1494583234.09,19596,13.0,73014.5,7.71,-11.37,-12.35,0,*7F
1494583235.35,19597,13.0,73012.8,7.67,-11.07,-12.11,0,*7C
1494583236.56,19598,13.0,73008.3,7.67,-10.31,-11.33,0,*74
1494583237.79,19599,13.0,73006.5,7.65,-11.11,-12.21,0,*74
1494583238.99,19600,13.0,73010.0,7.63,-10.93,-12.03,0,*7A
1494583240.24,19601,13.0,73008.3,7.63,-10.41,-11.67,0,*75
1494583241.49,19602,13.0,73004.5,7.63,-11.55,-12.75,0,*72
1494583242.75,19603,13.0,73008.8,7.61,-11.29,-12.47,0,*7B
1494583244.01,19604,13.0,73006.0,7.59,-11.29,-12.53,0,*72
1494583245.23,19605,13.0,73006.8,7.57,-12.25,-13.43,0,*72
1494583246.52,19606,13.0,73008.3,7.57,-11.59,-12.71,0,*79
1494583247.75,19607,13.0,73014.3,7.55,-10.85,-11.93,0,*75
1494583249.0,19608,13.0,73012.3,7.57,-11.01,-12.15,0,*78
1494583250.23,19609,13.0,73006.5,7.55,-10.75,-12.03,0,*7E
1494583251.48,19610,13.0,73010.3,7.53,-11.81,-12.93,0,*73
1494583252.71,19611,13.0,73010.0,7.51,-11.73,-12.97,0,*79
1494583253.95,19612,13.0,73014.0,7.51,-11.51,-12.65,0,*77
1494583255.16,19613,13.0,73006.0,7.51,-11.15,-12.21,0,*76
1494583256.38,19614,13.0,73006.3,7.47,-11.15,-12.25,0,*72
1494583257.64,19615,13.0,73004.3,7.49,-11.29,-12.43,0,*72
1494583258.89,19616,13.0,73006.5,7.49,-11.33,-12.43,0,*7A
1494583260.14,19617,13.0,73012.5,7.47,-11.33,-12.43,0,*75
1494583261.39,19618,13.0,73012.0,7.47,-11.15,-12.15,0,*7D
1494583262.66,19619,13.0,73010.0,7.47,-11.07,-12.11,0,*7B
1494583263.94,19620,13.0,73008.5,7.47,-10.71,-11.73,0,*76
1494583265.18,19621,13.0,73010.5,7.43,-10.49,-11.37,0,*78
1494583266.39,19622,13.0,73008.3,7.43,-8.97,-9.79,0,*72
1494583267.64,19623,13.0,73014.3,7.49,-9.53,-10.45,0,*47
1494583268.87,19624,13.0,73010.3,7.49,-10.49,-11.41,0,*76
1494583270.09,19625,13.0,73012.8,7.51,-10.85,-11.73,0,*7F
1494583271.32,19626,13.0,73012.8,7.53,-9.71,-10.53,0,*4E
1494583272.55,19627,13.0,73010.5,7.51,-9.37,-10.19,0,*41
1494583273.79,19628,13.0,73010.3,7.53,-7.91,-8.71,0,*79
1494583275.05,19629,13.0,73008.8,7.57,-7.99,-8.81,0,*7B
1494583276.28,19630,13.0,73012.0,7.61,-9.23,-10.19,0,*41
1494583277.52,19631,13.0,73008.0,7.61,-8.41,-9.45,0,*74
1494583278.74,19632,13.0,73012.3,7.65,-8.25,-9.05,0,*75
1494583279.95,19633,13.0,73008.3,7.71,-8.63,-9.37,0,*72
1494583281.14,19634,13.06,73012.8,7.71,-8.29,-9.23,0,*7E
1494583282.35,19635,13.0,73010.5,7.71,-9.61,-10.53,0,*4D
1494583283.57,19636,13.0,73010.8,7.73,-10.15,-10.85,0,*7C
1494583284.77,19637,13.0,73008.8,7.75,-9.31,-10.01,0,*49
1494583285.95,19638,13.0,73012.3,7.75,-9.27,-9.89,0,*79
1494583287.18,19639,13.0,73016.5,7.77,-9.75,-10.49,0,*49
1494583288.43,19640,13.0,73016.3,7.77,-9.15,-9.75,0,*76
1494583289.65,19641,13.0,73014.5,7.79,-9.01,-9.53,0,*78
1494583290.85,19642,13.0,73018.3,7.81,-8.71,-9.23,0,*7D
1494583292.06,19643,13.0,73016.0,7.85,-8.33,-8.81,0,*77
1494583293.32,19644,13.0,73018.5,7.87,-9.41,-10.01,0,*47
1494583294.54,19645,13.06,73018.8,7.87,-8.25,-8.93,0,*77
1494583295.75,19646,13.0,73014.5,7.89,-7.53,-7.95,0,*7D
1494583296.97,19647,13.0,73008.0,7.97,-7.53,-7.99,0,*7F
1494583298.17,19648,13.0,73012.3,7.99,-8.21,-8.55,0,*7B
1494583299.41,19649,13.0,73016.0,8.03,-7.91,-8.29,0,*79
1494583300.63,19650,13.0,73012.8,8.03,-8.41,-8.85,0,*75
1494583301.84,19651,13.0,73014.0,8.09,-8.03,-8.45,0,*74
1494583303.02,19652,13.0,73014.5,8.15,-6.85,-7.19,0,*7C
1494583304.26,19653,13.06,73016.3,8.15,-5.81,-6.19,0,*7B
1494583305.45,19654,13.0,73018.5,8.23,-4.25,-4.65,0,*7F
1494583306.64,19655,13.0,73014.3,8.31,-4.05,-4.25,0,*7B
1494583307.84,19656,13.0,73014.8,8.39,-3.83,-4.29,0,*75
1494583309.05,19657,13.0,73016.3,8.49,-4.49,-4.77,0,*79
1494583310.28,19658,13.0,73016.3,8.55,-5.43,-5.81,0,*78
1494583311.52,19659,13.0,73016.0,8.59,-6.63,-7.11,0,*7F
1494583312.74,19660,13.0,73018.3,8.63,-7.83,-8.25,0,*7B
1494583313.96,19661,13.0,73018.3,8.65,-6.59,-6.93,0,*79
1494583315.19,19662,13.0,73016.8,8.71,-4.49,-4.73,0,*70
1494583316.44,19663,13.0,73018.8,8.77,-2.63,-2.83,0,*70
1494583317.62,19664,13.0,73022.5,8.87,-1.59,-1.75,0,*78
1494583318.86,19665,13.0,73022.3,8.99,-2.47,-2.63,0,*7E
1494583320.1,19666,13.0,73020.3,9.03,-2.55,-2.71,0,*7F
1494583321.34,19667,13.0,73018.8,9.17,-1.87,-1.87,0,*7D
1494583322.58,19668,13.0,73020.3,9.23,-1.09,-1.17,0,*7A
1494583323.76,19669,13.06,73026.3,9.37,-2.23,-2.35,0,*76
1494583324.96,19670,13.0,73016.8,9.43,-3.87,-4.13,0,*70
1494583326.2,19671,13.0,73018.3,9.47,-5.61,-5.61,0,*7F
1494583327.39,19672,13.0,73014.3,9.47,-5.47,-5.47,0,*7C
1494583328.6,19673,13.0,73014.5,9.57,-4.65,-4.65,0,*7C
1494583329.8,19674,13.0,73016.8,9.59,-6.55,-6.59,0,*79
1494583331.03,19675,13.0,73022.0,9.63,-7.43,-7.31,0,*78
1494583332.25,19676,13.0,73020.5,9.63,-8.37,-8.11,0,*7A
1494583333.47,19677,13.06,73020.5,9.65,-8.63,-8.45,0,*7D
1494583334.72,19678,13.06,73022.5,9.63,-10.41,-10.41,0,*70
1494583336.0,19679,13.06,73022.5,9.61,-11.51,-11.29,0,*7C
1494583337.25,19680,13.0,73020.8,9.57,-12.47,-12.35,0,*75
1494583338.48,19681,13.06,73018.0,9.55,-12.29,-12.07,0,*7F
1494583339.73,19682,13.0,73022.3,9.49,-10.71,-10.49,0,*76
1494583340.96,19683,13.0,73014.8,9.49,-8.81,-8.59,0,*79
1494583342.19,19684,13.0,73014.5,9.53,-9.57,-9.19,0,*7A
1494583343.41,19685,13.0,73016.5,9.53,-10.01,-9.71,0,*4E
1494583344.64,19686,13.0,73012.0,9.49,-10.97,-10.57,0,*75
1494583345.89,19687,13.06,73012.8,9.49,-12.25,-11.81,0,*75
1494583347.14,19688,13.0,73018.0,9.49,-12.71,-12.25,0,*76
1494583348.39,19689,13.0,73016.5,9.45,-13.19,-12.75,0,*71
1494583349.66,19690,13.06,73016.5,9.41,-12.21,-11.63,0,*73
1494583350.94,19691,13.06,73016.3,9.41,-11.51,-10.79,0,*7C
1494583352.17,19692,13.06,73018.3,9.41,-11.11,-10.53,0,*73
1494583353.36,19693,13.06,73018.0,9.37,-11.19,-10.49,0,*70
1494583354.56,19694,13.06,73016.0,9.37,-11.15,-10.35,0,*70
1494583355.77,19695,13.06,73016.0,9.37,-11.15,-10.35,0,*71
1494583356.96,19696,13.0,73014.8,9.37,-10.57,-9.67,0,*4A
1494583358.17,19697,13.06,73016.0,9.39,-10.19,-9.23,0,*4F
1494583359.39,19698,13.0,73016.0,9.37,-10.27,-9.53,0,*44
1494583360.61,19699,13.06,73016.5,9.39,-10.57,-9.79,0,*44
1494583361.82,19700,13.06,73020.3,9.39,-10.15,-9.23,0,*4C
1494583363.06,19701,13.06,73016.8,9.39,-10.57,-9.61,0,*4D
1494583364.3,19702,13.0,73012.8,9.39,-10.31,-9.41,0,*4C
1494583365.49,19703,13.0,73014.0,9.43,-8.17,-7.23,0,*77
1494583366.71,19704,13.06,73018.8,9.43,-7.39,-6.47,0,*70
1494583367.97,19705,13.06,73018.8,9.53,-7.05,-6.23,0,*7D
1494583369.18,19706,13.06,73020.3,9.57,-6.47,-5.51,0,*7B
1494583370.42,19707,13.06,73020.0,9.61,-6.27,-5.35,0,*7B
1494583371.66,19708,13.0,73018.5,9.65,-6.89,-5.93,0,*78
1494583372.9,19709,13.0,73016.8,9.69,-8.21,-7.31,0,*73
1494583374.14,19710,13.06,73018.3,9.73,-8.25,-7.27,0,*73
1494583375.38,19711,13.0,73014.0,9.73,-9.71,-8.51,0,*7C
1494583376.63,19712,13.06,73014.8,9.73,-9.37,-8.17,0,*7F
1494583377.87,19713,13.06,73014.0,9.77,-10.93,-9.83,0,*40
1494583379.1,19714,13.06,73018.8,9.77,-11.45,-10.15,0,*7A
1494583380.31,19715,13.06,73014.8,9.71,-11.11,-10.01,0,*79
1494583381.53,19716,13.06,73014.0,9.71,-10.97,-9.83,0,*47
1494583382.79,19717,13.06,73014.3,9.73,-11.37,-10.19,0,*74
1494583384.01,19718,13.06,73016.5,9.71,-13.19,-12.07,0,*7A
1494583385.27,19719,13.06,73018.0,9.67,-13.87,-12.75,0,*7E
1494583386.51,19720,13.06,73016.0,9.65,-14.79,-13.65,0,*70
1494583387.73,19721,13.06,73014.3,9.59,-14.89,-13.83,0,*79
1494583388.98,19722,13.0,73014.8,9.57,-11.89,-10.89,0,*78
1494583390.22,19723,13.06,73016.8,9.57,-9.67,-8.51,0,*7C
1494583391.46,19724,13.06,73022.3,9.59,-8.81,-7.61,0,*70
1494583392.72,19725,13.06,73022.8,9.61,-11.55,-10.57,0,*78
1494583393.97,19726,13.0,73024.5,9.61,-13.11,-12.07,0,*7E
1494583395.19,19727,13.06,73026.3,9.59,-13.11,-11.97,0,*7E
1494583396.42,19728,13.06,73026.5,9.55,-13.87,-12.89,0,*7E
1494583397.67,19729,13.06,73022.0,9.49,-13.23,-12.15,0,*79
1494583398.94,19730,13.06,73016.0,9.49,-13.01,-11.85,0,*7B
1494583400.19,19731,13.06,73016.8,9.49,-13.73,-12.65,0,*72
1494583401.41,19732,13.06,73018.0,9.45,-14.29,-13.15,0,*73
1494583402.64,19733,13.06,73016.8,9.43,-13.79,-12.89,0,*72
1494583403.88,19734,13.06,73008.3,9.39,-15.11,-13.97,0,*7E
1494583405.1,19735,13.06,73016.5,9.37,-15.43,-14.29,0,*74
1494583406.33,19736,13.06,73016.0,9.33,-15.49,-14.55,0,*72
1494583407.55,19737,13.06,73012.8,9.27,-15.67,-14.65,0,*79
1494583408.81,19738,13.06,73008.8,9.23,-16.23,-15.15,0,*77
1494583410.06,19739,13.06,73010.5,9.19,-16.13,-15.11,0,*78
1494583411.29,19740,13.06,73010.5,9.15,-17.49,-16.41,0,*72
1494583412.54,19741,13.06,73012.3,9.11,-16.93,-15.81,0,*7E
1494583413.74,19742,13.06,73014.3,9.03,-16.93,-15.75,0,*75
1494583414.96,19743,13.06,73014.0,8.99,-16.37,-15.21,0,*79
1494583416.21,19744,13.06,73008.8,8.97,-16.17,-15.07,0,*76
1494583417.46,19745,13.06,73016.5,8.93,-16.03,-14.83,0,*7B
1494583418.71,19746,13.06,73016.0,8.89,-16.31,-15.15,0,*7C
1494583419.98,19747,13.06,73014.0,8.85,-16.23,-15.21,0,*75
1494583421.24,19748,13.06,73016.8,8.81,-16.45,-15.39,0,*77
1494583422.46,19749,13.06,73014.3,8.79,-16.31,-15.15,0,*7C
1494583423.69,19750,13.06,73018.3,8.75,-16.45,-15.15,0,*7B
1494583424.91,19751,13.06,73006.8,8.73,-17.25,-15.99,0,*7F
1494583426.17,19752,13.06,73012.8,8.67,-17.49,-16.31,0,*72
1494583427.4,19753,13.06,73014.5,8.63,-16.75,-15.63,0,*7D
1494583428.68,19754,13.06,73012.8,8.59,-16.27,-14.97,0,*7E
1494583429.9,19755,13.06,73014.8,8.57,-15.63,-14.43,0,*7B
1494583431.13,19756,13.06,73018.8,8.57,-15.15,-13.97,0,*77
1494583432.33,19757,13.06,73020.0,8.53,-15.53,-14.23,0,*78
1494583433.59,19758,13.06,73016.3,8.53,-16.23,-14.93,0,*78
1494583434.83,19759,13.06,73018.5,8.51,-15.95,-14.75,0,*7D
1494583436.06,19760,13.06,73016.5,8.49,-15.53,-14.05,0,*73
1494583437.28,19761,13.06,73014.8,8.45,-14.97,-13.69,0,*7A
1494583438.51,19762,13.06,73020.5,8.45,-13.11,-11.73,0,*79
1494583439.79,19763,13.06,73014.3,8.47,-12.11,-10.79,0,*70
1494583441.04,19764,13.06,73014.5,8.51,-12.07,-10.85,0,*74
1494583442.29,19765,13.06,73008.3,8.51,-13.19,-11.93,0,*7D
1494583443.55,19766,13.06,73014.0,8.53,-13.01,-11.67,0,*7E
1494583444.78,19767,13.06,73012.8,8.53,-13.33,-12.03,0,*7F
1494583446.03,19768,13.06,73016.3,8.51,-12.65,-11.19,0,*78
1494583447.27,19769,13.06,73020.8,8.53,-12.25,-10.67,0,*77
1494583448.54,19770,13.06,73014.3,8.55,-13.29,-11.73,0,*70
1494583449.8,19771,13.06,73018.3,8.57,-12.35,-10.75,0,*78
1494583451.04,19772,13.06,73020.5,8.57,-12.21,-10.63,0,*79
1494583452.27,19773,13.06,73016.3,8.57,-13.01,-11.45,0,*7E
1494583453.52,19774,13.06,73020.0,8.57,-13.29,-11.63,0,*77
1494583454.78,19775,13.06,73022.0,8.59,-13.55,-11.93,0,*7C
1494583456.0,19776,13.06,73014.0,8.59,-14.89,-13.11,0,*71
1494583457.2,19777,13.06,73022.0,8.57,-15.71,-13.73,0,*7C
1494583458.42,19778,13.06,73018.8,8.55,-15.15,-13.15,0,*73
1494583459.68,19779,13.06,73016.0,8.53,-13.87,-11.77,0,*7F
1494583460.9,19780,13.06,73014.8,8.53,-13.37,-11.19,0,*7A
1494583462.11,19781,13.06,73016.8,8.53,-13.23,-10.93,0,*7D
1494583463.35,19782,13.06,73006.3,8.53,-13.87,-11.41,0,*7E
1494583464.63,19783,13.06,73004.8,8.55,-13.83,-11.07,0,*7F
1494583465.86,19784,13.06,73008.5,8.53,-12.15,-9.19,0,*46
1494583467.1,19785,13.06,73010.8,8.55,-12.11,-8.85,0,*41
1494583468.32,19786,13.06,73012.0,8.57,-12.11,-8.71,0,*4B
1494583469.54,19787,13.06,73008.8,8.59,-13.07,-9.31,0,*47
1494583470.79,19788,13.06,73012.5,8.59,-13.23,-9.45,0,*4D
1494583472.07,19789,13.06,73016.0,8.59,-13.83,-9.53,0,*41
1494583473.32,19790,13.06,73018.0,8.59,-12.83,-8.37,0,*4B
1494583474.59,19791,13.06,73008.0,8.59,-12.07,-7.43,0,*4A
1494583475.86,19792,13.06,73004.5,8.59,-11.59,-7.05,0,*43
1494583477.11,19793,13.06,73006.0,8.65,-9.49,-4.89,0,*72
1494583478.35,19794,13.06,73010.0,8.71,-5.77,-1.63,0,*70
1494583479.62,19795,13.06,73012.0,8.77,-5.03,-2.71,0,*74
1494583480.86,19796,13.06,73014.0,8.85,-6.35,-3.43,0,*7C
1494583482.04,19797,13.06,73014.5,8.91,-6.85,-3.87,0,*7B
1494583483.25,19798,13.06,73014.0,8.95,-6.55,-3.67,0,*73
1494583484.48,19799,13.06,73012.5,8.99,-7.57,-4.77,0,*7B
1494583485.76,19800,13.06,73010.5,9.01,-7.73,-4.85,0,*7F
1494583486.99,19801,13.06,73016.5,9.05,-7.43,-4.99,0,*74
1494583488.24,19802,13.06,73014.5,9.09,-7.43,-5.27,0,*7F
1494583489.48,19803,13.06,73014.8,9.09,-5.69,-4.77,0,*70
1494583490.73,19804,13.06,73014.5,9.11,-6.39,-5.81,0,*70
1494583491.94,19805,13.06,73012.5,9.13,-6.01,-5.69,0,*7E
1494583493.2,19806,13.06,73014.3,9.15,-5.65,-5.77,0,*75
1494583494.45,19807,13.06,73012.8,9.17,-5.23,-5.77,0,*74
1494583495.65,19808,13.06,73014.5,9.17,-6.77,-7.83,0,*70
1494583496.87,19809,13.06,73014.8,9.17,-7.35,-8.85,0,*7F
1494583498.07,19810,13.06,73016.8,9.17,-8.55,-10.19,0,*42
1494583499.29,19811,13.13,73020.8,9.17,-7.31,-8.85,0,*72
1494583500.53,19812,13.06,73012.3,9.15,-7.35,-8.93,0,*70
1494583501.75,19813,13.06,73016.8,9.15,-8.55,-10.15,0,*4F
1494583502.99,19814,13.06,73016.3,9.15,-8.41,-9.61,0,*76
1494583504.22,19815,13.06,73014.0,9.15,-8.97,-10.01,0,*42
1494583505.43,19816,13.06,73014.5,9.15,-9.31,-9.89,0,*74
1494583506.7,19817,13.06,73016.3,9.15,-10.75,-11.37,0,*71
1494583507.95,19818,13.06,73012.5,9.11,-14.93,-14.61,0,*70
1494583509.2,19819,13.06,73012.3,9.05,-13.69,-12.79,0,*79
1494583510.42,19820,13.06,73016.8,9.03,-12.71,-11.19,0,*78
1494583511.67,19821,13.06,73018.0,9.01,-13.01,-11.15,0,*71
1494583512.89,19822,13.06,73014.0,8.97,-15.95,-13.47,0,*72
1494583514.13,19823,13.06,73016.8,8.93,-15.71,-12.57,0,*7D
1494583515.37,19824,13.06,73016.8,8.93,-12.89,-9.61,0,*45
1494583516.61,19825,13.06,73012.3,8.93,-12.11,-8.41,0,*46
1494583517.85,19826,13.06,73018.0,8.93,-13.15,-9.41,0,*41
1494583519.09,19827,13.06,73022.0,8.93,-12.39,-7.99,0,*44
1494583520.31,19828,13.06,73018.0,8.95,-10.79,-6.35,0,*4C
1494583521.52,19829,13.06,73012.8,8.99,-10.23,-5.73,0,*4F
1494583522.73,19830,13.06,73018.8,9.03,-11.45,-7.05,0,*47
1494583523.95,19831,13.06,73016.8,9.03,-10.31,-5.93,0,*49
1494583525.17,19832,13.06,73012.0,9.09,-10.35,-6.23,0,*4C
1494583526.42,19833,13.06,73016.0,9.11,-10.41,-6.59,0,*4A
1494583527.64,19834,13.06,73018.0,9.13,-10.45,-6.97,0,*49
1494583528.86,19835,13.06,73016.0,9.17,-11.29,-8.67,0,*46
1494583530.11,19836,13.06,73020.3,9.15,-12.53,-9.93,0,*43
1494583531.31,19837,13.06,73018.3,9.13,-12.43,-10.49,0,*7A
1494583532.59,19838,13.06,73018.0,9.11,-13.33,-11.77,0,*7D
1494583533.87,19839,13.06,73014.3,9.11,-12.79,-11.55,0,*73
1494583535.12,19840,13.06,73014.5,9.09,-11.67,-10.79,0,*77
1494583536.35,19841,13.06,73014.3,9.09,-11.77,-11.11,0,*78
1494583537.6,19842,13.06,73014.5,9.09,-12.15,-11.77,0,*7C
1494583538.83,19843,13.06,73012.0,9.09,-12.03,-11.63,0,*7F
1494583540.06,19844,13.06,73012.5,9.09,-12.65,-12.21,0,*7D
1494583541.28,19845,13.06,73016.5,9.05,-13.07,-12.47,0,*75
1494583542.56,19846,13.06,73022.5,9.05,-13.97,-13.33,0,*7D
1494583543.78,19847,13.06,73018.3,9.05,-14.29,-13.55,0,*7E
1494583545.03,19848,13.06,73012.3,9.01,-14.29,-13.37,0,*71
1494583546.25,19849,13.13,73018.3,9.01,-14.89,-13.73,0,*7A
1494583547.51,19850,13.06,73014.0,8.97,-15.35,-13.79,0,*70
1494583548.79,19851,13.06,73008.5,8.97,-14.51,-12.65,0,*7E
1494583550.04,19852,13.06,73014.3,8.95,-14.55,-12.53,0,*7E
1494583551.26,19853,13.06,73010.0,8.95,-15.57,-13.11,0,*7B
1494583552.48,19854,13.06,73010.5,8.93,-16.37,-13.51,0,*7B
1494583553.7,19855,13.06,73014.8,8.91,-16.27,-12.97,0,*72
1494583554.93,19856,13.06,73014.8,8.89,-14.89,-11.23,0,*72
1494583556.15,19857,13.06,73016.3,8.87,-16.55,-12.61,0,*7B
1494583557.41,19858,13.06,73012.0,8.85,-17.17,-12.47,0,*75
1494583558.66,19859,13.06,73014.3,8.85,-14.23,-9.45,0,*48
1494583559.88,19860,13.06,73012.3,8.85,-13.23,-8.21,0,*46
1494583561.1,19861,13.06,73006.8,8.85,-14.65,-9.23,0,*41
1494583562.34,19862,13.06,73004.5,8.81,-14.43,-8.93,0,*48
1494583563.57,19863,13.06,73010.5,8.79,-15.89,-10.45,0,*7B
1494583564.8,19864,13.13,73012.8,8.75,-16.55,-10.93,0,*79
1494583566.0,19865,13.06,73012.0,8.73,-15.63,-9.97,0,*44
1494583567.27,19866,13.13,73016.5,8.71,-14.83,-9.41,0,*41
1494583568.48,19867,13.06,73012.5,8.67,-13.93,-8.75,0,*47
1494583569.71,19868,13.06,73010.8,8.63,-14.11,-9.19,0,*4A
1494583570.93,19869,13.06,73012.3,8.57,-12.71,-8.21,0,*46
1494583572.14,19870,13.06,73016.8,8.57,-11.01,-6.81,0,*4E
1494583573.36,19871,13.06,73014.8,8.53,-12.35,-8.33,0,*48
1494583574.62,19872,13.06,73022.3,8.51,-11.67,-7.95,0,*4E
1494583575.85,19873,13.06,73016.5,8.49,-11.11,-7.61,0,*4C
1494583577.08,19874,13.06,73014.5,8.45,-10.89,-7.61,0,*47
1494583578.27,19875,13.06,73016.3,8.39,-10.31,-7.23,0,*48
1494583579.51,19876,13.06,73016.3,8.33,-9.01,-6.23,0,*7B
1494583580.72,19877,13.06,73018.0,8.29,-8.55,-6.01,0,*71
1494583581.91,19878,13.06,73014.3,8.27,-8.37,-6.39,0,*7F
1494583583.14,19879,13.06,73012.3,8.25,-7.61,-6.05,0,*7F
1494583584.36,19880,13.13,73016.3,8.21,-7.11,-6.35,0,*79
1494583585.6,19881,13.06,73016.0,8.21,-7.77,-7.83,0,*74
1494583586.8,19882,13.06,73006.0,8.17,-7.49,-8.55,0,*7B
1494583588.02,19883,13.06,73010.5,8.09,-5.43,-7.35,0,*74
1494583589.23,19884,13.06,73012.8,8.09,-5.07,-8.33,0,*7A
1494583590.45,19885,13.06,73016.0,8.07,-6.35,-10.53,0,*48
1494583591.7,19886,13.06,73016.5,8.03,-6.05,-10.63,0,*4F
1494583592.94,19887,13.06,73016.0,8.03,-6.85,-11.81,0,*4B
1494583594.21,19888,13.06,73018.0,8.03,-7.05,-11.73,0,*40
1494583595.43,19889,13.06,73018.5,8.03,-8.97,-13.43,0,*44
1494583596.68,19890,13.06,73014.0,8.03,-9.37,-13.51,0,*44
1494583597.9,19891,13.06,73018.0,8.03,-9.79,-13.51,0,*4F
1494583599.15,19892,13.06,73018.5,8.03,-9.75,-12.71,0,*43
1494583600.38,19893,13.06,73020.8,8.05,-10.35,-12.57,0,*7C
1494583601.62,19894,13.06,73016.8,8.07,-10.31,-11.77,0,*7C
1494583602.85,19895,13.06,73014.3,8.09,-10.97,-11.89,0,*7E
1494583604.13,19896,13.06,73018.0,8.11,-11.07,-11.33,0,*7D
1494583605.37,19897,13.06,73016.3,8.15,-11.85,-11.81,0,*7B
1494583606.64,19898,13.06,73012.5,8.11,-13.87,-13.01,0,*7A
1494583607.87,19899,13.06,73014.8,8.15,-13.97,-12.29,0,*75
1494583609.06,19900,13.06,73014.0,8.15,-13.43,-11.45,0,*74
1494583610.3,19901,13.06,73016.0,8.17,-12.47,-10.19,0,*7A
1494583611.54,19902,13.06,73016.0,8.19,-11.85,-9.57,0,*48
1494583612.77,19903,13.06,73014.3,8.19,-11.97,-10.15,0,*74
1494583614.0,19904,13.06,73014.3,8.21,-12.21,-10.53,0,*74
1494583615.26,19905,13.06,73012.5,8.23,-11.93,-10.75,0,*79
1494583616.5,19906,13.06,73016.5,8.21,-12.47,-11.81,0,*78
1494583617.75,19907,13.06,73016.5,8.21,-12.03,-11.63,0,*75
1494583619.01,19908,13.06,73018.0,8.25,-10.79,-10.35,0,*73
1494583620.24,19909,13.06,73016.0,8.27,-11.29,-10.97,0,*7C
1494583621.46,19910,13.06,73018.3,8.31,-12.43,-11.59,0,*7F
1494583622.71,19911,13.06,73018.3,8.33,-11.89,-10.93,0,*7E
1494583623.9,19912,13.06,73020.8,8.35,-12.89,-11.45,0,*72
1494583625.12,19913,13.13,73022.8,8.35,-13.47,-11.77,0,*71
1494583626.35,19914,13.06,73016.0,8.39,-14.65,-12.71,0,*78
1494583627.53,19915,13.13,73022.8,8.39,-15.95,-13.69,0,*7F
1494583628.75,19916,13.13,73020.8,8.39,-15.95,-13.37,0,*77
1494583630.0,19917,13.06,73022.3,8.35,-16.13,-13.29,0,*78
1494583631.25,19918,13.06,73022.0,8.33,-17.31,-14.01,0,*7D
1494583632.49,19919,13.06,73022.5,8.31,-16.69,-13.01,0,*75
1494583633.72,19920,13.06,73018.8,8.29,-16.45,-12.39,0,*72
1494583634.91,19921,13.06,73018.5,8.27,-16.89,-12.25,0,*70
1494583636.15,19922,13.06,73018.5,8.25,-16.31,-11.19,0,*7E
1494583637.37,19923,13.06,73022.0,8.23,-16.69,-11.19,0,*74
1494583638.57,19924,13.06,73016.5,8.23,-16.83,-11.19,0,*77
1494583639.79,19925,13.06,73012.0,8.21,-15.75,-9.79,0,*41
1494583641.04,19926,13.06,73010.3,8.21,-15.53,-9.45,0,*49
1494583642.26,19927,13.06,73008.0,8.19,-15.71,-9.61,0,*45
1494583643.52,19928,13.06,73006.3,8.17,-16.13,-10.15,0,*78
1494583644.74,19929,13.06,73008.5,8.11,-15.95,-10.09,0,*7F
1494583645.94,19930,13.06,73008.8,8.09,-16.93,-11.11,0,*73
1494583647.18,19931,13.06,73012.0,8.05,-17.79,-12.11,0,*78
1494583648.43,19932,13.06,73012.8,8.03,-15.99,-10.63,0,*76
1494583649.69,19933,13.06,73018.0,7.97,-15.81,-10.67,0,*78
1494583650.92,19934,13.06,73016.0,7.97,-14.23,-9.15,0,*4B
1494583652.14,19935,13.06,73020.3,7.89,-13.61,-8.71,0,*47
1494583653.37,19936,13.06,73016.3,7.89,-13.87,-9.01,0,*4A
1494583654.59,19937,13.06,73022.3,7.89,-12.83,-8.21,0,*4D
1494583655.84,19938,13.13,73024.3,7.87,-12.39,-8.07,0,*49
1494583657.11,19939,13.06,73020.0,7.87,-12.35,-7.99,0,*4C
1494583658.37,19940,13.06,73022.3,7.85,-12.35,-8.11,0,*4F
1494583659.61,19941,13.06,73022.0,7.83,-12.43,-8.11,0,*49
1494583660.84,19942,13.06,73018.8,7.81,-12.79,-8.37,0,*45
1494583662.08,19943,13.06,73020.5,7.77,-12.39,-7.99,0,*42
1494583663.3,19944,13.06,73022.0,7.77,-13.07,-8.45,0,*47
1494583664.54,19945,13.13,73020.8,7.73,-12.57,-7.83,0,*43
1494583665.78,19946,13.06,73018.0,7.67,-11.85,-7.05,0,*47
1494583667.02,19947,13.13,73022.5,7.67,-11.77,-6.93,0,*45
1494583668.21,19948,13.06,73016.0,7.67,-10.93,-6.01,0,*4A
1494583669.46,19949,13.06,73018.0,7.65,-11.33,-6.51,0,*47
1494583670.68,19950,13.06,73018.5,7.63,-10.27,-5.69,0,*45
1494583671.9,19951,13.06,73018.5,7.63,-9.79,-5.27,0,*7D
1494583673.09,19952,13.06,73016.0,7.63,-10.35,-6.05,0,*4D
1494583674.3,19953,13.06,73018.8,7.61,-10.01,-5.97,0,*41
1494583675.49,19954,13.06,73016.0,7.59,-9.23,-5.47,0,*78
1494583676.69,19955,13.06,73016.5,7.59,-10.27,-6.69,0,*4A
1494583677.9,19956,13.06,73016.0,7.57,-10.05,-6.85,0,*45
1494583679.08,19957,13.06,73014.3,7.55,-9.93,-6.85,0,*71
1494583680.32,19958,13.13,73014.8,7.53,-9.57,-6.85,0,*70
1494583681.55,19959,13.06,73010.3,7.53,-7.83,-5.55,0,*78
1494583682.79,19960,13.06,73014.0,7.53,-8.03,-6.31,0,*74
1494583684.01,19961,13.06,73010.3,7.53,-6.85,-5.51,0,*70
1494583685.24,19962,13.13,73016.5,7.53,-6.59,-5.43,0,*71
1494583686.46,19963,13.06,73016.8,7.55,-6.51,-5.81,0,*70
1494583687.68,19964,13.06,73012.5,7.55,-6.09,-5.73,0,*77
1494583688.95,19965,13.06,73014.3,7.57,-5.81,-5.65,0,*70
1494583690.19,19966,13.06,73018.8,7.57,-6.01,-6.19,0,*70
1494583691.43,19967,13.06,73018.8,7.57,-6.47,-6.97,0,*75
1494583692.64,19968,13.13,73020.8,7.59,-6.51,-7.05,0,*79
1494583693.85,19969,13.13,73022.0,7.59,-6.69,-7.35,0,*70
1494583695.07,19970,13.06,73018.8,7.59,-6.77,-7.43,0,*76
1494583696.29,19971,13.06,73016.3,7.59,-7.57,-8.37,0,*78
1494583697.51,19972,13.06,73018.0,7.59,-7.73,-8.63,0,*7C
1494583698.75,19973,13.06,73018.5,7.59,-6.93,-7.73,0,*7C
1494583699.94,19974,13.06,73016.5,7.59,-8.37,-9.31,0,*73
1494583701.13,19975,13.06,73018.0,7.59,-8.37,-9.19,0,*78
1494583702.4,19976,13.06,73020.3,7.57,-6.93,-7.77,0,*73
1494583703.66,19977,13.06,73018.5,7.57,-6.97,-7.77,0,*76
1494583704.92,19978,13.06,73016.5,7.57,-7.77,-8.81,0,*70
1494583706.14,19979,13.06,73016.8,7.57,-8.93,-10.09,0,*4D
1494583707.36,19980,13.06,73018.8,7.55,-9.05,-10.27,0,*4B
1494583708.57,19981,13.06,73014.8,7.55,-8.85,-10.01,0,*47
1494583709.78,19982,13.13,73020.0,7.55,-9.19,-10.35,0,*47
1494583710.97,19983,13.13,73016.5,7.51,-8.75,-9.97,0,*79